FW2458 Weather Reports


time (UTC)temp
C
wind
direction
speed
KPH
gust
KPH
rain 1hr
cm
rain 24hr
cm
rain mn
cm
humidity
%
barometer
mb
20260510164350 20 226 1.6 12.9 0.00 0.79 0.00 75 1012.9
20260510163849 20 227 1.6 12.9 0.00 0.79 0.00 74 1013.0
20260510163348 20 53 1.6 12.9 0.00 0.79 0.00 75 1013.0
20260510162848 20 60 1.6 12.9 0.00 0.79 0.00 75 1013.0
20260510162350 20 122 1.6 6.4 0.00 0.79 0.00 79 1013.1
20260510162113 20 105 3.2 6.4 0.00 0.79 0.00 75 1013.2
20260510161348 20 94 1.6 6.4 0.00 0.79 0.00 78 1013.1
20260510160848 19 200 1.6 6.4 0.00 0.79 0.00 80 1013.1
20260510160610 19 167 1.6 6.4 0.00 0.79 0.00 81 1013.2
20260510155848 18 103 1.6 9.7 0.00 0.79 0.00 80 1013.1
20260510155349 18 59 1.6 9.7 0.00 0.79 0.00 80 1013.1
20260510154850 18 93 1.6 9.7 0.00 0.79 0.00 79 1013.1
20260510154607 18 242 3.2 9.7 0.00 0.79 0.00 81 1013.0
20260510154104 18 231 1.6 8.0 0.00 0.79 0.00 81 1013.1
20260510153346 17 225 3.2 8.0 0.00 0.79 0.00 81 1013.1
20260510153109 17 214 1.6 6.4 0.00 0.79 0.00 81 1013.2
20260510152616 17 39 1.6 6.4 0.00 0.79 0.00 82 1013.2
20260510151846 17 115 1.6 8.0 0.00 0.79 0.00 83 1013.1
20260510151348 16 288 1.6 8.0 0.00 0.79 0.00 86 1013.1
20260510150844 16 181 1.6 8.0 0.00 0.79 0.00 85 1013.0
20260510150358 16 233 3.2 8.0 0.00 0.79 0.00 85 1013.0
20260510145845 16 43 3.2 8.0 0.00 0.79 0.00 86 1013.2
20260510145345 15 37 1.6 8.0 0.00 0.79 0.00 86 1013.2
20260510144845 15 235 1.6 6.4 0.00 0.79 0.00 87 1013.3
20260510144544 15 232 0.0 6.4 0.00 0.79 0.00 87 1013.3
20260510144435 15 125 1.6 6.4 0.00 0.79 0.00 87 1013.4
20260510143345 15 227 0.0 6.4 0.00 0.79 0.00 88 1013.4
20260510143107 15 84 1.6 4.8 0.00 0.79 0.00 87 1013.1
20260510142602 15 84 1.6 8.0 0.00 0.79 0.00 86 1013.2
20260510141839 15 180 1.6 8.0 0.00 0.79 0.00 86 1013.1
20260510141338 15 143 1.6 8.0 0.00 0.79 0.00 86 1013.1
20260510140841 15 193 3.2 9.7 0.00 0.79 0.00 87 1013.3
20260510140337 15 94 3.2 9.7 0.00 0.79 0.00 89 1013.2
20260510135839 14 105 3.2 9.7 0.00 0.79 0.00 89 1013.1
20260510135606 14 103 3.2 9.7 0.00 0.79 0.00 91 1013.1
20260510134837 14 121 1.6 9.7 0.00 0.79 0.00 91 1013.0
20260510134607 14 71 0.0 6.4 0.00 0.79 0.00 93 1012.9
20260510133837 14 153 0.0 3.2 0.00 0.79 0.00 94 1013.1
20260510133558 14 189 0.0 3.2 0.00 0.79 0.00 96 1013.1
20260510132837 13 194 0.0 3.2 0.00 0.79 0.00 96 1013.1
20260510132335 13 194 0.0 3.2 0.00 0.79 0.00 96 1013.0
20260510132105 13 194 0.0 3.2 0.00 0.79 0.00 96 1013.0
20260510131335 13 179 0.0 0.0 0.00 0.79 0.00 97 1013.0
20260510130845 12 179 0.0 0.0 0.00 0.79 0.00 97 1012.9
20260510130334 12 180 0.0 0.0 0.00 0.79 0.00 96 1012.9
20260510125558 12 179 0.0 0.0 0.00 0.79 0.00 96 1012.6
20260510124830 12 179 0.0 0.0 0.00 0.79 0.00 97 1012.6
20260510124329 12 179 0.0 0.0 0.00 0.79 0.00 97 1012.6
20260510123826 11 180 0.0 0.0 0.00 0.79 0.00 96 1012.5
20260510123549 11 180 0.0 0.0 0.00 0.79 0.00 96 1012.7
20260510122823 12 179 0.0 0.0 0.00 0.79 0.00 97 1012.5
20260510122320 11 179 0.0 0.0 0.00 0.79 0.00 97 1012.6
20260510121821 11 179 0.0 0.0 0.00 0.79 0.00 97 1012.4
20260510121321 11 179 0.0 0.0 0.00 0.79 0.00 96 1012.6
20260510120819 11 179 0.0 0.0 0.00 0.79 0.00 97 1012.4
20260510120315 11 179 0.0 0.0 0.00 0.79 0.00 97 1012.3
20260510115816 11 179 0.0 1.6 0.00 0.79 0.00 96 1012.3
20260510115318 11 179 0.0 1.6 0.00 0.79 0.00 96 1012.2
20260510114812 11 179 0.0 1.6 0.00 0.79 0.00 96 1012.0
20260510114306 11 179 0.0 1.6 0.00 0.79 0.00 96 1012.1
20260510113756 11 179 0.0 1.6 0.00 0.79 0.00 96 1012.0
20260510113250 10 179 0.0 3.2 0.00 0.79 0.00 96 1012.2
20260510112744 10 179 0.0 3.2 0.00 0.79 0.00 96 1012.2
20260510112234 11 179 0.0 1.6 0.00 0.79 0.00 96 1012.1
20260510111728 10 179 0.0 1.6 0.00 0.79 0.00 96 1012.1
20260510111444 10 179 0.0 1.6 0.00 0.79 0.00 96 1012.0
20260510110712 10 179 0.0 3.2 0.00 0.79 0.00 96 1011.9
20260510110649 10 179 0.0 3.2 0.00 0.79 0.00 96 1011.8
20260510105700 10 179 0.0 1.6 0.00 0.79 0.00 96 1012.0
20260510105150 10 179 0.0 1.6 0.00 0.79 0.00 96 1011.9
20260510104644 10 179 0.0 1.6 0.00 0.79 0.00 96 1011.8
20260510104407 10 179 0.0 1.6 0.00 0.79 0.00 96 1011.7
20260510103627 10 179 0.0 1.6 0.00 0.79 0.00 96 1011.6
20260510103122 10 179 0.0 0.0 0.00 0.79 0.00 96 1011.5
20260510102615 10 179 0.0 0.0 0.00 0.79 0.00 96 1011.6
20260510102106 10 179 0.0 0.0 0.00 0.79 0.00 96 1011.7
20260510101559 10 179 0.0 0.0 0.00 0.79 0.00 96 1011.7
20260510101543 10 179 0.0 0.0 0.00 0.79 0.00 96 1011.7
20260510100549 10 179 0.0 0.0 0.00 0.79 0.00 96 1011.6
20260510100044 10 179 0.0 0.0 0.00 0.79 0.00 96 1011.7
20260510095545 10 179 0.0 0.0 0.00 0.79 0.00 96 1011.7
20260510095044 10 179 0.0 0.0 0.00 0.79 0.00 96 1011.7
20260510094545 10 179 0.0 0.0 0.00 0.79 0.00 96 1011.7
20260510094300 10 179 0.0 0.0 0.00 0.79 0.00 96 1011.8
20260510093808 10 179 0.0 1.6 0.00 0.79 0.00 96 1011.7
20260510093038 10 179 0.0 1.6 0.00 0.79 0.00 96 1011.6
20260510092537 10 177 0.0 0.0 0.00 0.79 0.00 96 1011.5
20260510092038 10 177 0.0 0.0 0.00 0.79 0.00 96 1011.6
20260510091539 10 177 0.0 0.0 0.00 0.79 0.00 96 1011.7
20260510091035 10 177 0.0 0.0 0.00 0.79 0.00 96 1011.8
20260510090534 10 176 0.0 0.0 0.00 0.79 0.00 96 1011.8
20260510090035 10 176 0.0 0.0 0.00 0.79 0.00 96 1011.9
20260510085034 10 176 0.0 0.0 0.00 0.79 0.00 96 1012.0
20260510084528 10 176 0.0 0.0 0.00 0.79 0.00 96 1012.1
20260510084028 10 176 0.0 0.0 0.00 0.79 0.00 96 1012.1
20260510083527 10 176 0.0 0.0 0.00 0.79 0.00 95 1012.0
20260510083023 10 176 0.0 0.0 0.00 0.79 0.00 95 1012.0
20260510082521 10 176 0.0 1.6 0.00 0.79 0.00 95 1012.0
20260510082019 10 176 0.0 1.6 0.00 0.79 0.00 95 1012.1
20260510081517 10 176 0.0 1.6 0.00 0.79 0.00 95 1012.1
20260510081018 10 176 0.0 4.8 0.00 0.79 0.00 95 1011.9
20260510080514 10 177 0.0 4.8 0.00 0.79 0.00 95 1011.8
20260510080455 10 177 0.0 4.8 0.00 0.79 0.00 95 1012.0
20260510075510 10 175 0.0 4.8 0.00 0.79 0.00 95 1011.8
20260510075008 10 184 0.0 0.0 0.00 0.79 0.00 95 1011.6
20260510074731 10 184 0.0 0.0 0.00 0.79 0.00 95 1011.3
20260510074007 10 184 0.0 0.0 0.00 0.79 0.00 95 1011.3
20260510073505 10 184 0.0 0.0 0.00 0.79 0.00 95 1011.3
20260510073005 10 184 0.0 0.0 0.00 0.79 0.00 95 1011.3
20260510072729 10 184 0.0 0.0 0.00 0.79 0.00 95 1011.2
20260510072005 10 184 0.0 0.0 0.00 0.79 0.00 95 1011.2
20260510071505 10 184 0.0 0.0 0.00 0.79 0.00 95 1011.2
20260510071002 10 184 0.0 0.0 0.00 0.79 0.00 95 1011.2
20260510070516 11 184 0.0 0.0 0.00 0.79 0.00 95 1011.3
20260510070001 11 184 0.0 0.0 0.00 0.79 0.00 95 1011.3
20260510065717 11 184 0.0 0.0 0.00 0.79 0.00 95 1011.5
20260510065001 11 184 0.0 0.0 0.00 0.79 0.00 95 1011.4
20260510064457 11 184 0.0 0.0 0.00 0.79 0.00 95 1011.4
20260510063954 11 184 0.0 0.0 0.00 0.79 0.00 95 1011.4
20260510063453 11 184 0.0 0.0 0.00 0.79 0.00 95 1011.5
20260510062950 11 184 0.0 0.0 0.00 0.79 0.00 95 1011.5
20260510062454 11 184 0.0 0.0 0.00 0.79 0.00 95 1011.4
20260510061958 11 184 0.0 0.0 0.00 0.79 0.00 95 1011.3
20260510061447 11 184 0.0 0.0 0.00 0.79 0.00 95 1011.3
20260510060946 11 184 0.0 0.0 0.00 0.79 0.00 95 1011.2
20260510060454 11 184 0.0 0.0 0.00 0.79 0.00 96 1011.0
20260510055948 11 184 0.0 0.0 0.00 0.79 0.00 96 1011.1
20260510055941 11 184 0.0 0.0 0.00 0.79 0.00 96 1011.0
20260510054943 10 184 0.0 0.0 0.00 0.79 0.00 95 1011.1
20260510054442 10 184 0.0 0.0 0.00 0.79 0.00 95 1011.0
20260510053942 10 184 0.0 0.0 0.00 0.79 0.00 95 1011.0
20260510053441 10 184 0.0 0.0 0.00 0.79 0.00 95 1011.0
20260510052942 10 184 0.0 0.0 0.00 0.79 0.00 95 1011.0
20260510052441 10 184 0.0 0.0 0.00 0.79 0.00 95 1011.0
20260510051941 10 184 0.0 0.0 0.00 0.79 0.00 95 1011.1
20260510051710 10 184 0.0 0.0 0.00 0.79 0.00 95 1011.1
20260510051214 10 184 0.0 0.0 0.00 0.79 0.00 95 1011.2
20260510050441 10 184 0.0 0.0 0.00 0.79 0.00 95 1011.2
20260510045942 10 184 0.0 0.0 0.00 0.79 0.00 95 1011.2
20260510045441 10 184 0.0 0.0 0.00 0.79 0.00 95 1011.1
20260510044943 10 184 0.0 0.0 0.00 0.79 0.00 95 1011.3
20260510044708 10 184 0.0 0.0 0.00 0.79 0.00 95 1011.2
20260510043938 10 184 0.0 0.0 0.00 0.79 0.00 95 1011.2
20260510043438 10 184 0.0 0.0 0.00 0.79 0.00 95 1011.2
20260510043206 10 184 0.0 0.0 0.00 0.79 0.00 95 1011.3
20260510042437 10 184 0.0 0.0 0.00 0.79 0.00 95 1011.2
20260510041937 10 184 0.0 0.0 0.00 0.79 0.00 95 1011.2
20260510041700 10 184 0.0 0.0 0.00 0.79 0.00 95 1011.3
20260510040935 10 184 0.0 0.0 0.00 0.79 0.00 94 1011.2
20260510040434 10 184 0.0 0.0 0.00 0.79 0.00 95 1011.2
20260510035932 10 184 0.0 0.0 0.00 0.79 0.79 95 1011.2
20260510035426 10 184 0.0 0.0 0.00 0.79 0.79 95 1011.2
20260510034925 10 184 0.0 0.0 0.00 0.79 0.79 95 1011.3
20260510034420 10 184 0.0 0.0 0.00 0.79 0.79 95 1011.1
20260510033918 10 184 0.0 0.0 0.00 0.79 0.79 95 1011.1
20260510033414 11 184 0.0 0.0 0.00 0.79 0.79 95 1010.9
20260510033132 11 184 0.0 0.0 0.00 0.79 0.79 95 1011.0
20260510032412 11 184 0.0 0.0 0.00 0.79 0.79 95 1011.1
20260510031908 10 184 0.0 0.0 0.00 0.79 0.79 95 1011.0
20260510031408 10 184 0.0 0.0 0.00 0.79 0.79 95 1010.8
20260510030905 10 184 0.0 0.0 0.00 0.79 0.79 95 1010.8
20260510030405 10 184 0.0 0.0 0.00 0.79 0.79 95 1010.9
20260510025902 10 184 0.0 0.0 0.00 0.79 0.79 95 1010.9
20260510025400 10 184 0.0 0.0 0.00 0.79 0.79 95 1010.8
20260510024858 10 184 0.0 0.0 0.00 0.79 0.79 94 1010.8
20260510024355 10 184 0.0 0.0 0.00 0.79 0.79 94 1010.9
20260510024122 10 184 0.0 0.0 0.00 0.79 0.79 94 1010.9
20260510023351 10 184 0.0 0.0 0.00 0.79 0.79 94 1010.8
20260510022850 10 184 0.0 0.0 0.00 0.79 0.79 94 1011.0
20260510022349 10 184 0.0 0.0 0.00 0.79 0.79 94 1011.0
20260510021849 10 184 0.0 0.0 0.00 0.79 0.79 94 1011.0
20260510021610 10 184 0.0 0.0 0.00 0.79 0.79 94 1011.0
20260510020831 10 184 0.0 0.0 0.00 0.79 0.79 94 1011.0
20260510020326 10 184 0.0 0.0 0.00 0.79 0.79 93 1011.0
20260510015826 10 184 0.0 0.0 0.00 0.79 0.79 93 1011.0
20260510015532 10 184 0.0 0.0 0.00 0.79 0.79 93 1010.9
20260510014805 10 184 0.0 0.0 0.00 0.79 0.79 93 1010.9
20260510014259 11 184 0.0 0.0 0.00 0.79 0.79 93 1011.0
20260510013749 11 184 0.0 0.0 0.00 0.79 0.79 93 1010.9
20260510013242 11 184 0.0 0.0 0.00 0.79 0.79 93 1011.1
20260510012735 11 184 0.0 0.0 0.00 0.79 0.79 93 1011.1
20260510012227 11 184 0.0 0.0 0.00 0.79 0.79 93 1010.9
20260510011721 11 184 0.0 0.0 0.00 0.79 0.79 93 1010.9
20260510011215 11 184 0.0 0.0 0.00 0.79 0.79 93 1010.8
20260510010705 11 184 0.0 0.0 0.00 0.79 0.79 93 1010.8
20260510010159 11 184 0.0 0.0 0.00 0.79 0.79 93 1010.6
20260510005653 11 184 0.0 0.0 0.00 0.79 0.79 93 1010.4
20260510005143 11 184 0.0 0.0 0.00 0.79 0.79 93 1010.3
20260510004638 11 184 0.0 0.0 0.00 0.79 0.79 93 1010.3
20260510004355 11 184 0.0 0.0 0.00 0.79 0.79 93 1010.3
20260510003621 11 184 0.0 0.0 0.00 0.79 0.79 93 1010.3
20260510003342 12 184 0.0 0.0 0.00 0.79 0.79 93 1010.2
20260510002608 12 184 0.0 0.0 0.00 0.79 0.79 93 1010.2
20260510002548 12 184 0.0 0.0 0.00 0.79 0.79 93 1010.3
20260510001553 12 184 0.0 0.0 0.00 0.79 0.79 93 1010.3
20260510001047 12 184 0.0 0.0 0.00 0.79 0.79 93 1010.3
20260510000537 12 184 0.0 0.0 0.00 0.79 0.79 93 1010.3
20260510000031 12 184 0.0 0.0 0.00 0.79 0.79 93 1010.3
20260509235524 12 184 0.0 0.0 0.00 0.79 0.79 93 1010.2
20260509235014 12 184 0.0 0.0 0.00 0.79 0.79 93 1010.2
20260509234509 12 184 0.0 0.0 0.00 0.79 0.79 93 1010.1
20260509234002 12 184 0.0 0.0 0.00 0.79 0.79 93 1010.0
20260509233453 12 184 0.0 0.0 0.00 0.79 0.79 93 1009.9
20260509232947 12 184 0.0 4.8 0.00 0.79 0.79 93 1009.9
20260509232707 13 184 0.0 4.8 0.00 0.79 0.79 93 1009.9
20260509231931 13 184 0.0 4.8 0.00 0.79 0.79 93 1009.9
20260509231425 13 184 1.6 4.8 0.00 0.79 0.79 93 1009.9
20260509230919 13 200 0.0 3.2 0.00 0.79 0.79 93 1009.9
20260509230422 13 202 0.0 3.2 0.00 0.79 0.79 94 1010.0
20260509230124 12 202 0.0 3.2 0.00 0.79 0.79 93 1010.0
20260509225357 12 202 0.0 3.2 0.00 0.79 0.79 93 1010.0
20260509224847 12 197 0.0 1.6 0.00 0.79 0.79 93 1010.0
20260509224341 12 200 0.0 1.6 0.00 0.79 0.79 93 1010.1
20260509223835 12 200 0.0 1.6 0.00 0.79 0.79 93 1010.3
20260509223325 12 201 0.0 4.8 0.00 0.79 0.79 93 1010.4
20260509222819 12 204 0.0 4.8 0.08 0.79 0.79 93 1010.6
20260509222313 12 203 0.0 4.8 0.13 0.79 0.79 93 1010.4
20260509221803 12 207 1.6 4.8 0.18 0.79 0.79 93 1010.3
20260509221257 12 168 1.6 4.8 0.23 0.79 0.79 93 1010.2
20260509220751 12 153 0.0 4.8 0.25 0.79 0.79 93 1010.3
20260509220457 12 63 0.0 3.2 0.28 0.79 0.79 93 1010.3
20260509215735 12 63 0.0 4.8 0.30 0.79 0.79 93 1010.4
20260509215229 12 63 0.0 4.8 0.33 0.79 0.79 93 1010.3
20260509214718 12 74 0.0 4.8 0.33 0.79 0.79 93 1010.5
20260509214213 12 74 0.0 3.2 0.36 0.79 0.79 93 1010.5
20260509213707 12 74 0.0 3.2 0.38 0.79 0.79 93 1010.5
20260509213417 12 74 0.0 3.2 0.36 0.74 0.76 92 1010.3
20260509212651 12 74 0.0 3.2 0.33 0.71 0.71 92 1010.4
20260509212144 12 76 0.0 3.2 0.28 0.64 0.66 92 1010.6
20260509211635 12 76 0.0 1.6 0.23 0.58 0.61 92 1010.6
20260509211620 12 76 0.0 1.6 0.20 0.56 0.56 92 1010.5
20260509211059 12 76 0.0 1.6 0.20 0.53 0.53 92 1010.4
20260509210118 12 76 0.0 1.6 0.20 0.51 0.51 92 1010.5
20260509205607 12 76 0.0 1.6 0.18 0.48 0.48 91 1010.4
20260509205101 12 76 0.0 1.6 0.18 0.46 0.46 91 1010.3
20260509204555 12 76 0.0 3.2 0.18 0.43 0.43 91 1010.2
20260509204043 12 76 0.0 4.8 0.20 0.41 0.41 91 1010.4
20260509203542 12 76 0.0 4.8 0.23 0.41 0.41 91 1010.3
20260509203047 12 187 0.0 3.2 0.33 0.38 0.38 91 1010.4
20260509202544 12 187 0.0 3.2 0.30 0.36 0.36 91 1010.5
20260509202044 12 187 0.0 3.2 0.30 0.36 0.36 91 1010.5
20260509201542 12 187 0.0 3.2 0.33 0.36 0.36 91 1010.6
20260509201258 12 187 0.0 3.2 0.33 0.36 0.36 91 1010.5
20260509200538 12 187 0.0 3.2 0.30 0.33 0.33 90 1010.7
20260509200038 13 187 0.0 3.2 0.28 0.30 0.30 90 1010.9
20260509195535 13 186 0.0 3.2 0.28 0.30 0.30 90 1010.9
20260509195253 13 186 1.6 6.4 0.25 0.28 0.28 89 1010.9
20260509194532 13 186 1.6 6.4 0.23 0.25 0.25 88 1010.9
20260509194032 13 186 1.6 6.4 0.18 0.20 0.23 87 1011.2
20260509193754 13 198 1.6 6.4 0.15 0.18 0.20 87 1011.2
20260509193033 13 161 1.6 6.4 0.03 0.05 0.05 86 1011.1
20260509192528 13 148 1.6 6.4 0.03 0.05 0.05 85 1011.2
20260509192020 13 148 1.6 6.4 0.03 0.05 0.05 85 1011.0
20260509191523 14 119 1.6 4.8 0.03 0.03 0.03 85 1010.9
20260509191022 14 111 1.6 4.8 0.03 0.03 0.03 85 1011.0
20260509190747 14 350 0.0 4.8 0.03 0.03 0.03 86 1010.9
20260509190243 14 346 1.6 4.8 0.03 0.03 0.03 86 1010.9
20260509185523 13 227 1.6 4.8 0.03 0.03 0.03 85 1011.1
20260509185019 13 184 0.0 4.8 0.03 0.03 0.03 85 1010.9
20260509184519 14 185 0.0 4.8 0.03 0.03 0.03 85 1010.8
20260509184018 14 130 1.6 3.2 0.03 0.03 0.03 84 1010.7
20260509183520 14 110 1.6 6.4 0.03 0.03 0.03 84 1010.7
20260509183018 14 189 0.0 6.4 0.03 0.03 0.03 83 1010.7
20260509182801 15 190 1.6 6.4 0.03 0.03 0.03 82 1011.1
20260509182236 15 154 1.6 6.4 0.03 0.03 0.03 80 1011.2
20260509181744 15 70 1.6 8.0 0.00 0.00 0.00 80 1011.4
20260509181016 15 92 1.6 8.0 0.00 0.00 0.00 78 1011.4
20260509180517 15 191 1.6 9.7 0.00 0.00 0.00 78 1011.5
20260509180504 16 214 1.6 9.7 0.00 0.00 0.00 76 1011.4
20260509175517 16 174 1.6 6.4 0.00 0.00 0.00 76 1011.5
20260509175017 16 157 1.6 6.4 0.00 0.00 0.00 73 1011.5
20260509174738 17 179 1.6 6.4 0.00 0.00 0.00 71 1011.3
20260509174249 17 58 3.2 12.9 0.00 0.00 0.00 70 1011.1
20260509173516 17 227 3.2 12.9 0.00 0.00 0.00 67 1011.1
20260509173016 17 40 3.2 12.9 0.00 0.00 0.00 67 1010.9
20260509172750 18 320 3.2 12.9 0.00 0.00 0.00 66 1010.9
20260509172235 17 57 3.2 11.3 0.00 0.00 0.00 68 1010.8
20260509171517 17 262 1.6 11.3 0.00 0.00 0.00 70 1010.8
20260509171016 17 207 1.6 11.3 0.00 0.00 0.00 69 1010.9
20260509170516 17 105 1.6 6.4 0.00 0.00 0.00 69 1010.9
20260509170246 17 167 1.6 6.4 0.00 0.00 0.00 69 1010.8
20260509165516 17 211 1.6 8.0 0.00 0.00 0.00 70 1010.9
20260509165017 17 64 1.6 8.0 0.00 0.00 0.00 69 1010.9